Location: Laterina
(43.5167°N, 11.7167°E)
Time: 16:10:47
(UTC+00:00)

ARGOS - Pass Details

Date: 24 September 2020
Orbit: 821 x 834 km, 98.4° (Epoch: 25 October)

Event Time Altitude Azimuth Distance (km) Brightness Sun altitude
Rises 17:21:56 0° 129° (SE) 3,346 5.8 -3.7°
Reaches altitude 10° 17:24:39 10° 116° (ESE) 2,419 5.0 -4.2°
Maximum altitude 17:28:54 25° 63° (ENE) 1,622 4.2 -4.9°
Drops below altitude 10° 17:33:11 10° 11° (N) 2,437 5.6 -5.7°
Sets 17:35:55 0° 358° (N) 3,377 6.4 -6.2°
